1998-067TG

Last updated on Tue Feb 15 2022 00:02:05 GMT+0000 (Coordinated Universal Time)

1 51509U 98067TG 22045.53008910 .00027310 00000+0 46803-3 0 9995 2 51509 51.6425 223.9391 0009556 135.5768 224.5986 15.50957129 1779

Satellite not in orbit

1998-067TG